ES8TJM-10 Weather Reports


time (UTC)temp
C
wind
direction
speed
KPH
gust
KPH
rain 1hr
cm
rain 24hr
cm
rain mn
cm
humidity
%
barometer
mb
20260508120004 15 64 32.2 40.2 0.00 0.00 0.00 17 1025.2
20260508115403 15 53 32.2 37.0 0.00 0.00 0.00 17 1025.2
20260508114503 15 47 27.4 37.0 0.00 0.00 0.00 17 1025.3
20260508113603 15 68 29.0 40.2 0.00 0.00 0.00 17 1025.1
20260508112703 15 48 30.6 40.2 0.00 0.00 0.00 17 1025.1
20260508111804 15 43 27.4 45.1 0.00 0.00 0.00 17 1025.3
20260508110903 15 58 29.0 33.8 0.00 0.00 0.00 17 1025.2
20260508110004 15 60 30.6 40.2 0.00 0.00 0.00 17 1025.1
20260508105404 15 43 27.4 40.2 0.00 0.00 0.00 17 1025.2
20260508104504 15 45 27.4 40.2 0.00 0.00 0.00 17 1025.2
20260508103604 15 54 27.4 43.5 0.00 0.00 0.00 17 1025.3
20260508102703 14 36 29.0 33.8 0.00 0.00 0.00 18 1025.3
20260508101803 15 37 27.4 35.4 0.00 0.00 0.00 18 1025.3
20260508100904 15 46 29.0 37.0 0.00 0.00 0.00 18 1025.4
20260508100004 14 51 32.2 41.8 0.00 0.00 0.00 18 1025.4
20260508095403 14 47 32.2 38.6 0.00 0.00 0.00 18 1025.5
20260508094503 14 48 29.0 37.0 0.00 0.00 0.00 18 1025.4
20260508093604 13 46 29.0 37.0 0.00 0.00 0.00 18 1025.5
20260508092704 13 51 25.7 30.6 0.00 0.00 0.00 18 1025.4
20260508091804 13 41 32.2 35.4 0.00 0.00 0.00 18 1025.4
20260508090903 13 52 30.6 38.6 0.00 0.00 0.00 18 1025.4
20260508090004 13 54 30.6 35.4 0.00 0.00 0.00 18 1025.4
20260508085404 13 60 30.6 35.4 0.00 0.00 0.00 18 1025.5
20260508084717 13 77 29.0 33.8 0.00 0.00 0.00 18 1025.5
20260508083603 13 47 29.0 37.0 0.00 0.00 0.00 19 1025.4
20260508082704 13 59 32.2 40.2 0.00 0.00 0.00 19 1025.4
20260508082018 13 70 32.2 40.2 0.00 0.00 0.00 19 1025.3
20260508080903 13 58 29.0 40.2 0.00 0.00 0.00 19 1025.5
20260508080004 13 56 30.6 35.4 0.00 0.00 0.00 19 1025.5
20260508075404 12 52 30.6 35.4 0.00 0.00 0.00 18 1025.5
20260508074503 12 39 30.6 37.0 0.00 0.00 0.00 17 1025.3
20260508073604 12 55 27.4 33.8 0.00 0.00 0.00 20 1025.2
20260508072703 12 52 30.6 35.4 0.00 0.00 0.00 20 1025.3
20260508071803 12 55 29.0 37.0 0.00 0.00 0.00 23 1025.2
20260508070904 11 48 27.4 33.8 0.00 0.00 0.00 26 1025.2
20260508070004 12 48 22.5 32.2 0.00 0.00 0.00 28 1025.1
20260508065403 11 50 25.7 32.2 0.00 0.00 0.00 30 1025.1
20260508064504 11 60 27.4 32.2 0.00 0.00 0.00 32 1025.1
20260508063604 11 47 27.4 32.2 0.00 0.00 0.00 32 1025.0
20260508062704 10 44 22.5 27.4 0.00 0.00 0.00 35 1025.0
20260508061804 10 53 24.1 30.6 0.00 0.00 0.00 37 1024.9
20260508060904 10 45 32.2 33.8 0.00 0.00 0.00 38 1024.8
20260508060219 10 45 29.0 33.8 0.00 0.00 0.00 39 1024.8
20260508055404 10 45 24.1 27.4 0.00 0.00 0.00 40 1024.8
20260508054503 9 45 22.5 27.4 0.00 0.00 0.00 42 1024.7
20260508053603 8 47 24.1 27.4 0.00 0.00 0.00 43 1024.7
20260508052704 8 45 22.5 27.4 0.00 0.00 0.00 45 1024.6
20260508051804 8 45 20.9 24.1 0.00 0.00 0.00 46 1024.4
20260508050904 7 42 19.3 20.9 0.00 0.00 0.00 47 1024.2
20260508050004 7 42 19.3 24.1 0.00 0.00 0.00 47 1024.3
20260508045404 7 40 20.9 24.1 0.00 0.00 0.00 47 1024.1
20260508044504 7 38 19.3 24.1 0.00 0.00 0.00 48 1023.9
20260508043603 7 40 19.3 24.1 0.00 0.00 0.00 49 1023.9
20260508042918 6 36 20.9 24.1 0.00 0.00 0.00 49 1023.9
20260508041803 6 40 17.7 20.9 0.00 0.00 0.00 51 1023.6
20260508040903 6 43 17.7 19.3 0.00 0.00 0.00 53 1023.6
20260508040005 6 30 17.7 20.9 0.00 0.00 0.00 55 1023.6
20260508035405 6 35 16.1 20.9 0.00 0.00 0.00 56 1023.5
20260508034504 5 42 16.1 17.7 0.00 0.00 0.00 58 1023.4
20260508033603 5 45 14.5 17.7 0.00 0.00 0.00 58 1023.3
20260508032703 5 37 14.5 17.7 0.00 0.00 0.00 59 1023.3
20260508031803 5 39 14.5 17.7 0.00 0.00 0.00 60 1023.0
20260508030903 4 45 12.9 17.7 0.00 0.00 0.00 60 1023.0
20260508030004 4 45 12.9 16.1 0.00 0.00 0.00 60 1023.0
20260508025404 4 43 14.5 16.1 0.00 0.00 0.00 60 1022.9
20260508024503 4 43 14.5 16.1 0.00 0.00 0.00 59 1022.9
20260508023818 4 40 12.9 16.1 0.00 0.00 0.00 59 1022.8
20260508022703 4 36 14.5 17.7 0.00 0.00 0.00 58 1022.7
20260508021803 5 31 14.5 16.1 0.00 0.00 0.00 57 1022.5
20260508020903 5 15 14.5 14.5 0.00 0.00 0.00 56 1022.3
20260508020217 5 11 14.5 17.7 0.00 0.00 0.00 55 1022.2
20260508015403 5 20 14.5 16.1 0.00 0.00 0.00 54 1022.1
20260508014718 5 18 14.5 17.7 0.00 0.00 0.00 53 1022.2
20260508013603 5 4 16.1 19.3 0.00 0.00 0.00 51 1022.0
20260508012917 5 11 16.1 19.3 0.00 0.00 0.00 50 1022.0
20260508011804 5 10 16.1 17.7 0.00 0.00 0.00 48 1021.8
20260508010904 6 11 17.7 22.5 0.00 0.00 0.00 46 1021.8
20260508010004 6 10 16.1 17.7 0.00 0.00 0.00 46 1021.6
20260508005403 6 18 16.1 17.7 0.00 0.00 0.00 46 1021.6
20260508004504 6 20 16.1 17.7 0.00 0.00 0.00 46 1021.6
20260508003603 6 24 17.7 20.9 0.00 0.00 0.00 46 1021.6
20260508002917 6 26 17.7 20.9 0.00 0.00 0.00 46 1021.5
20260508001803 6 18 17.7 24.1 0.00 0.00 0.00 47 1021.3
20260508000903 6 360 17.7 17.7 0.00 0.00 0.00 47 1021.3
20260508000004 6 6 16.1 19.3 0.00 0.00 0.00 49 1021.1
20260507235403 5 8 14.5 19.3 0.00 0.00 0.00 50 1021.1
20260507234504 5 360 14.5 17.7 0.00 0.00 0.00 51 1021.1
20260507233603 5 360 16.1 20.9 0.00 0.00 0.00 51 1021.0
20260507232704 5 360 16.1 20.9 0.00 0.00 0.00 51 1020.8
20260507231805 5 360 14.5 17.7 0.00 0.00 0.00 50 1020.8
20260507230904 5 3 12.9 17.7 0.00 0.00 0.00 50 1020.6
20260507230004 5 360 12.9 16.1 0.00 0.00 0.00 50 1020.6
20260507225404 5 360 14.5 17.7 0.00 0.00 0.00 49 1020.5
20260507224504 5 360 14.5 17.7 0.00 0.00 0.00 49 1020.3
20260507223603 6 360 16.1 17.7 0.00 0.00 0.00 48 1020.3
20260507222704 6 360 16.1 17.7 0.00 0.00 0.00 46 1020.2
20260507221804 6 360 17.7 19.3 0.00 0.00 0.00 46 1020.2
20260507220903 6 360 20.9 22.5 0.00 0.00 0.00 45 1019.9
20260507220004 6 360 17.7 22.5 0.00 0.00 0.00 44 1019.9
20260507215404 6 360 19.3 20.9 0.00 0.00 0.00 43 1019.8
20260507214503 6 357 19.3 22.5 0.00 0.00 0.00 41 1019.7
20260507213603 6 359 19.3 24.1 0.00 0.00 0.00 41 1019.6
20260507212703 6 360 19.3 22.5 0.00 0.00 0.00 41 1019.6
20260507211803 5 360 17.7 20.9 0.00 0.00 0.00 44 1019.4
20260507210903 5 360 16.1 19.3 0.00 0.00 0.00 46 1019.3
20260507210004 5 355 9.7 14.5 0.00 0.00 0.00 43 1019.3
20260507205403 5 343 6.4 8.0 0.00 0.00 0.00 41 1019.2
20260507204718 6 2 4.8 6.4 0.00 0.00 0.00 41 1019.2
20260507203603 6 3 6.4 8.0 0.00 0.00 0.00 38 1019.1
20260507202917 6 3 8.0 12.9 0.00 0.00 0.00 37 1018.9
20260507201803 7 14 9.7 11.3 0.00 0.00 0.00 33 1018.8
20260507201118 7 8 9.7 11.3 0.00 0.00 0.00 31 1018.8
20260507200217 7 20 11.3 14.5 0.00 0.00 0.00 30 1018.8
20260507195403 7 17 9.7 11.3 0.00 0.00 0.00 30 1018.5
20260507194503 7 23 12.9 14.5 0.00 0.00 0.00 30 1018.5
20260507193818 7 360 14.5 16.1 0.00 0.00 0.00 31 1018.4
20260507192703 7 5 14.5 17.7 0.00 0.00 0.00 34 1018.4
20260507191804 7 9 14.5 17.7 0.00 0.00 0.00 34 1018.2
20260507190903 8 4 11.3 14.5 0.00 0.00 0.00 37 1018.0
20260507190217 8 2 12.9 14.5 0.00 0.00 0.00 39 1017.8
20260507185404 8 360 14.5 17.7 0.00 0.00 0.00 39 1017.8
20260507184504 8 360 14.5 20.9 0.00 0.00 0.00 37 1017.6
20260507183603 9 360 17.7 19.3 0.00 0.00 0.00 35 1017.5
20260507182703 9 353 17.7 19.3 0.00 0.00 0.00 33 1017.4
20260507181803 10 357 16.1 17.7 0.00 0.00 0.00 29 1017.1
20260507180903 10 358 14.5 17.7 0.00 0.00 0.00 21 1017.0
20260507180004 11 360 17.7 22.5 0.00 0.00 0.00 16 1016.8
20260507175403 11 360 19.3 22.5 0.00 0.00 0.00 16 1016.8
20260507174503 12 8 24.1 29.0 0.00 0.00 0.00 15 1016.6
20260507173604 12 1 24.1 32.2 0.00 0.00 0.00 15 1016.6
20260507172703 12 3 29.0 33.8 0.00 0.00 0.00 15 1016.5
20260507171803 12 6 29.0 33.8 0.00 0.00 0.00 16 1016.3
20260507170903 12 1 29.0 33.8 0.00 0.00 0.00 16 1016.0
20260507170004 12 16 29.0 33.8 0.00 0.00 0.00 16 1015.9
20260507165403 12 8 30.6 33.8 0.00 0.00 0.00 19 1015.8
20260507164503 13 360 33.8 43.5 0.00 0.00 0.00 19 1015.7
20260507163818 13 360 30.6 38.6 0.00 0.00 0.00 19 1015.7
20260507162703 13 358 35.4 41.8 0.00 0.00 0.00 20 1015.6
20260507161803 13 360 30.6 37.0 0.00 0.00 0.00 19 1015.3
20260507160903 13 360 33.8 33.8 0.00 0.00 0.00 19 1015.3
20260507160004 14 360 32.2 37.0 0.00 0.00 0.00 19 1015.2
20260507155403 14 356 30.6 37.0 0.00 0.00 0.00 19 1015.1
20260507154504 14 358 30.6 35.4 0.00 0.00 0.00 19 1015.0
20260507153603 15 358 25.7 33.8 0.00 0.00 0.00 18 1014.9
20260507152703 15 3 24.1 32.2 0.00 0.00 0.00 17 1014.8
20260507151804 15 18 11.3 24.1 0.00 0.00 0.00 17 1014.8
20260507150903 15 343 14.5 24.1 0.00 0.00 0.00 18 1014.7
20260507150217 15 353 17.7 25.7 0.00 0.00 0.00 17 1014.8
20260507145403 15 8 11.3 14.5 0.00 0.00 0.00 17 1014.7
20260507144503 15 336 16.1 19.3 0.00 0.00 0.00 20 1014.6
20260507143603 15 12 17.7 24.1 0.00 0.00 0.00 18 1014.7
20260507142703 15 300 16.1 22.5 0.00 0.00 0.00 25 1014.5
20260507141803 14 307 20.9 25.7 0.00 0.00 0.00 24 1014.5
20260507141118 14 285 17.7 25.7 0.00 0.00 0.00 23 1014.6
20260507140003 14 307 17.7 24.1 0.00 0.00 0.00 23 1014.6
20260507135403 14 296 19.3 24.1 0.00 0.00 0.00 26 1014.6
20260507134503 14 320 19.3 27.4 0.00 0.00 0.00 26 1014.6
20260507133817 14 338 20.9 27.4 0.00 0.00 0.00 26 1014.5
20260507132703 14 309 22.5 32.2 0.00 0.00 0.00 21 1014.3
20260507131803 14 310 19.3 25.7 0.00 0.00 0.00 22 1014.4
20260507130903 14 318 22.5 27.4 0.00 0.00 0.00 22 1014.3
20260507130004 14 330 24.1 27.4 0.00 0.00 0.00 23 1014.6
20260507125618 14 317 25.7 30.6 0.00 0.00 0.00 23 1014.5
20260507124504 13 314 25.7 33.8 0.00 0.00 0.00 23 1014.3
20260507123603 13 329 24.1 32.2 0.00 0.00 0.00 21 1014.4
20260507122705 14 356 19.3 27.4 0.00 0.00 0.00 23 1014.4
20260507122018 15 31 11.3 24.1 0.00 0.00 0.00 20 1014.5
20260507120903 14 347 17.7 25.7 0.00 0.00 0.00 22 1014.5